CZ-4C DEB, 45484

Orbit data source: Space-Track

CZ-4C DEB, 45484 is space debris in LEO originally from a launch on Tue, 10 Apr 2018 UTC launched from the Jiuquan Satellite Launch Center, China (JSC). Debris objects in space refer to the collection of defunct objects orbiting the Earth. Examples of debris include non-operational satellites, rocket bodies, and fragments generated from explosions, collisions, or faulty payload assembly.

Loading next visibility...
Identifier
45484, 2018-034M
Orbit
LEO
Last TLE update
1 day ago
Origin
Manufacturer
Unknown
Mission
Spacecraft
Bus & Motor
Unknown
Mass
Unknown
Launch date (UTC)
2018-04-10 (7 years ago)
Launch vehicle
Unknown
Launch site
Jiuquan Satellite Launch Center, China (JSC)
Object type
Payload
Rocket body
Debris
Shape & HBR
Unknown
Radar Cross Section
Small (<0.1 m²)

Expand to show TLE details & history

TLE from 1 day ago
0 CZ-4C DEB
1 45484U 18034M   25128.30149024 -.00000048  00000-0  62939-4 0  9998
2 45484  63.3910  79.1906 0230004   7.2173 353.2069 13.42915914313037
Epoch: 2025-05-08T07:14Z
Definitive object data (Epoch: 2025-05-08T07:14:08.756Z)
Latitude
-0.00008°
Longitude
104.28013°
Altitude
929.485 km
Speed
7.471 km/s
True Right ascension
05h 16m 45s
True Declination
0° 00' 00"
Sunlit
Object was in daylight at TLE epoch
Visualization TLE readout
Latitude
52.55909°
Longitude
142.37645°
Altitude
1,005.15 km
Speed
7.404 km/s
Apparent Right ascension
05h 14m 40s
Apparent Declination
13° 13' 00"
Sunlit
Object is in daylight
Visualization observer readout
Local Sidereal Time
14:54:51
Azimuth
320.941° NNW
Elevation
-27.727°
Doppler factor
1
Orbital elements
Apogee altitude
1,269.205 km
Perigee altitude
925.331 km
Semi-major axis
7,475.405 km
Eccentricity
0.0230004
Inclination
63.391°
RAAN
79.1906°
Arg. of periapsis
7.2173°
True anomaly
352.88599°
Mean anomaly
353.2069°
Eccentric anomaly
353.04738°
Mean motion
3.35808 °/min
BSTAR
0.000062939
Orbital period
107.2 mins
Loading maneuver chart data...
Loading SW <> Apogee altitude chart data...
Loading historical data...
Loading historical data...
Loading historical data...
Loading historical data...
Loading historical data...
Loading historical data...
Loading historical data...

CZ-4C DEB Visibility forecast

Observer location: undefined°, undefined°

Span
Click to sort rows by Start time (UTC) header in descending order
Start Az.
Max El. time (UTC)
Max El. Az.
Max El.
End time (UTC)
End Az.
14 mins2025-05-09 06:59:57.716Z328.283° NNW2025-05-09 07:06:57.716Z57.304° ENE44.428°2025-05-09 07:13:57.716Z141.728° SSE
9 mins2025-05-09 08:52:57.716Z290.568° WNW2025-05-09 08:56:57.716Z253.295° W20.666°2025-05-09 09:01:57.716Z209.046° SW
7 mins2025-05-09 20:53:57.716Z141.479° SSE2025-05-09 20:56:57.716Z106.903° ESE18.439°2025-05-09 21:00:57.716Z65.922° ENE
11 mins2025-05-09 22:41:57.716Z225.596° WSW2025-05-09 22:46:57.716Z313.589° NW42.833°2025-05-09 22:52:57.716Z29.469° NE
7 mins2025-05-10 00:35:57.716Z298.926° NW2025-05-10 00:38:57.716Z330.577° NNW16.563°2025-05-10 00:42:57.716Z8.834° NNE
6 mins2025-05-10 04:24:57.716Z6.047° NNE2025-05-10 04:26:57.716Z24.786° NE15.263°2025-05-10 04:30:57.716Z59.588° ENE
13 mins2025-05-10 06:13:57.716Z337.699° N2025-05-10 06:19:57.716Z56.075° ENE38.194°2025-05-10 06:26:57.716Z124.824° SE
|